Weather History for KPIA - September, 2013

Change the Weather History Date:

Monday, September 16, 2013

  Actual Average Record
Temperature  
Mean Temperature 64 °F 66 °F  
Max Temperature 73 °F 77 °F 94 °F (1939)
Min Temperature 54 °F 55 °F 35 °F (1916)
Degree Days  
Heating Degree Days 1 2  
Month to date heating degree days 9 20  
Since 1 July heating degree days 14 26  
Cooling Degree Days 0 4  
Month to date cooling degree days 147 85  
Year to date cooling degree days 1089 992  
Growing Degree Days 14 (Base 50)    
Moisture  
Dew Point 51 °F    
Average Humidity 69    
Maximum Humidity 93    
Minimum Humidity 44    
Precipitation  
Precipitation 0.00 in 0.11 in 2.15 in (1980)
Month to date precipitation 0.72 1.76  
Year to date precipitation 32.55 26.71  
Snow  
Snow 0.00 in 0.00 in 0.00 in ()
Month to date snowfall 0.0 0.0  
Since 1 July snowfall 0.0 0.0  
Since 1 September snowfall 0.0 0.0  
Snow Depth 0.00 in    
Sea Level Pressure  
Sea Level Pressure 30.27 in    
Wind  
Wind Speed 10 mph (NE)    
Max Wind Speed 17 mph    
Max Gust Speed 23 mph    
Visibility 10 miles    
Events      
T = Trace of Precipitation, MM = Missing Value Source: NWS Daily Summary

Daily Weather History Graph

Daily Weather History Graph

Search for Another Location

Airport or City:

Trip Planner

Search our weather history database for the weather conditions in past years. The results will help you decide how hot, cold, wet, or windy it might be!

Date:

Astronomy

Sep. 16, 2013 Rise Set
Actual Time 6:40 AM CDT 7:05 PM CDT
Civil Twilight 6:13 AM CDT 7:32 PM CDT
Nautical Twilight 5:40 AM CDT 8:05 PM CDT
Astronomical Twilight 5:07 AM CDT 8:38 PM CDT
Moon 5:15 PM CDT (9/16) 3:26 AM CDT (9/16)
Length of Visible Light 13h 19m
Length of Day
12h 24m
Waxing Gibbous, 90% of the Moon is Illuminated
Sep 16
Waxing Gibbous
Sep 19
Full
Sep 26
Last Quarter
Oct 4
New
Oct 11
First Quarter

Hourly Weather History & Observations

Time (CDT) Temp. Dew Point Humidity Pressure Visibility Wind Dir Wind Speed Gust Speed Precip Events Conditions
12:18 AM 57.0 °F 54.0 °F 89% 30.17 in 10.0 mi NNE 3.5 mph - N/A   Mostly Cloudy
12:54 AM 57.9 °F 54.0 °F 87% 30.18 in 10.0 mi NNE 4.6 mph - N/A   Overcast
1:54 AM 59.0 °F 54.0 °F 83% 30.19 in 10.0 mi NE 9.2 mph - N/A   Overcast
2:40 AM 57.9 °F 55.0 °F 90% 30.19 in 10.0 mi NE 6.9 mph - N/A   Mostly Cloudy
2:54 AM 57.9 °F 54.0 °F 87% 30.19 in 10.0 mi NNE 4.6 mph - N/A   Scattered Clouds
3:32 AM 57.0 °F 54.0 °F 89% 30.20 in 10.0 mi NNE 6.9 mph - N/A   Mostly Cloudy
3:54 AM 57.0 °F 55.0 °F 93% 30.20 in 10.0 mi NNE 6.9 mph - N/A   Overcast
4:23 AM 57.9 °F 54.0 °F 87% 30.21 in 10.0 mi NNE 8.1 mph - N/A   Overcast
4:37 AM 57.9 °F 54.0 °F 87% 30.21 in 10.0 mi NNE 9.2 mph - N/A   Overcast
4:52 AM 57.2 °F 53.6 °F 88% 30.22 in 10.0 mi NE 8.1 mph - N/A   Overcast
4:54 AM 57.9 °F 54.0 °F 87% 30.22 in 10.0 mi NE 10.4 mph - N/A   Overcast
5:54 AM 57.9 °F 55.0 °F 90% 30.25 in 10.0 mi NE 10.4 mph - N/A   Overcast
6:54 AM 57.9 °F 54.0 °F 87% 30.28 in 10.0 mi NE 10.4 mph - N/A   Overcast
7:54 AM 57.9 °F 53.1 °F 84% 30.30 in 10.0 mi NE 12.7 mph - N/A   Overcast
8:31 AM 57.9 °F 53.1 °F 84% 30.31 in 10.0 mi NE 11.5 mph - N/A   Overcast
8:54 AM 57.9 °F 52.0 °F 81% 30.31 in 10.0 mi NE 10.4 mph - N/A   Overcast
9:05 AM 57.9 °F 51.1 °F 78% 30.32 in 10.0 mi Variable 6.9 mph - N/A   Overcast
9:35 AM 59.0 °F 51.1 °F 75% 30.33 in 10.0 mi NE 6.9 mph - N/A   Overcast
9:54 AM 61.0 °F 51.1 °F 70% 30.34 in 10.0 mi ENE 11.5 mph - N/A   Mostly Cloudy
10:11 AM 61.0 °F 52.0 °F 72% 30.34 in 10.0 mi NE 9.2 mph - N/A   Scattered Clouds
10:54 AM 63.0 °F 51.1 °F 65% 30.33 in 10.0 mi NE 12.7 mph 19.6 mph N/A   Scattered Clouds
11:54 AM 66.0 °F 51.1 °F 59% 30.33 in 10.0 mi NE 11.5 mph - N/A   Partly Cloudy
12:54 PM 68.0 °F 50.0 °F 52% 30.32 in 10.0 mi East 9.2 mph - N/A   Clear
1:54 PM 70.0 °F 48.9 °F 47% 30.31 in 10.0 mi ENE 10.4 mph - N/A   Partly Cloudy
2:54 PM 70.0 °F 50.0 °F 49% 30.29 in 10.0 mi ENE 10.4 mph - N/A   Scattered Clouds
3:54 PM 71.1 °F 50.0 °F 47% 30.27 in 10.0 mi ENE 12.7 mph - N/A   Scattered Clouds
4:54 PM 70.0 °F 46.9 °F 44% 30.27 in 10.0 mi ENE 11.5 mph - N/A   Partly Cloudy
5:54 PM 70.0 °F 46.0 °F 42% 30.27 in 10.0 mi NE 10.4 mph - N/A   Clear
6:54 PM 64.9 °F 46.9 °F 52% 30.26 in 10.0 mi NE 4.6 mph - N/A   Clear
7:54 PM 61.0 °F 48.0 °F 62% 30.26 in 10.0 mi NE 3.5 mph - N/A   Clear
8:54 PM 61.0 °F 46.9 °F 60% 30.27 in 10.0 mi East 11.5 mph - N/A   Clear
9:54 PM 57.9 °F 46.0 °F 65% 30.28 in 10.0 mi ENE 12.7 mph - N/A   Clear
10:54 PM 55.9 °F 46.0 °F 69% 30.30 in 10.0 mi ENE 10.4 mph - N/A   Clear
11:54 PM 55.0 °F 46.0 °F 72% 30.31 in 10.0 mi East 10.4 mph - N/A   Clear